Date,TemperatureHighF,TemperatureAvgF,TemperatureLowF,DewpointHighF,DewpointAvgF,DewpointLowF,HumidityHigh,HumidityAvg,HumidityLow,PressureMaxIn,PressureMinIn,WindSpeedMaxMPH,WindSpeedAvgMPH,GustSpeedMaxMPH,PrecipitationSumIn
2013-5-11,58,46,38,50,42,37,94,87,68,29.90,29.73,23,5,23,0.00
2013-5-12,47,41,35,37,33,27,97,76,51,30.10,29.85,21,5,21,0.00
2013-5-13,52,42,31,34,29,26,91,64,39,30.19,30.10,15,2,15,0.00
2013-5-14,60,51,42,48,43,34,89,75,54,30.14,29.78,14,4,14,0.00
2013-5-15,53,52,51,50,48,46,92,89,80,29.82,29.67,10,2,10,0.02
2013-5-16,76,66,49,51,44,40,77,47,31,30.10,29.91,10,4,10,0.00
2013-5-17,67,55,45,50,45,42,94,69,43,30.23,30.10,11,2,11,0.00
2013-5-18,76,64,53,53,48,43,78,58,33,30.22,30.10,11,2,11,0.00
2013-5-19,82,69,54,66,58,47,85,69,51,30.11,29.95,13,2,13,0.00
2013-5-20,86,72,59,72,64,58,100,76,45,30.00,29.83,19,3,19,0.00
2013-5-21,82,74,66,70,64,57,95,72,44,29.88,29.77,14,3,14,0.09
2013-5-22,77,69,65,67,64,58,97,84,54,29.80,29.66,21,4,21,0.04
2013-5-23,65,51,40,62,50,38,100,97,88,30.15,29.71,18,5,18,0.18
2013-5-24,52,43,37,40,37,34,98,82,55,30.38,30.15,20,5,20,0.00
2013-5-25,62,49,34,45,38,31,100,71,37,30.42,30.32,13,2,13,0.00
2013-5-26,66,52,38,42,37,31,94,60,34,30.37,30.29,13,2,13,0.00
2013-5-27,66,51,37,51,42,34,100,75,37,30.31,30.08,13,2,13,0.19
2013-5-28,70,58,49,69,58,49,100,100,97,30.08,29.85,10,0,10,0.90
2013-5-29,82,71,63,69,66,60,100,85,48,30.04,29.78,16,2,16,0.23
2013-5-30,84,71,64,72,67,62,100,88,50,30.12,30.04,33,2,33,0.21
2013-5-31,81,72,66,70,68,66,100,88,64,30.06,29.91,19,4,19,0.59